{"data":{"norad_id":67996,"intl_designator":"2026-039L","name":"STARLINK-36979","alt_names":[],"object_type":"PAYLOAD","status":"ACTIVE","operator":null,"country":"US","launch_date":"2026-02-27","launch_site_code":"AFETR","launch_vehicle":null,"mission":null,"orbit_class":"UNKNOWN","rcs_meters":null,"size_class":null,"mass_kg":null,"dimensions":null,"purposes":["comms"],"wikipedia_slug":null,"has_3d_model":false,"image_url":null,"decayed_at":null,"tle_current":{"epoch":"2026-09-19T14:57:08.079552Z","epoch_age_seconds":135439,"freshness":"FRESH","line1":"1 67996U 26039L   26262.62301018  .00004205  00000+0  16221-3 0  9991","line2":"2 67996  43.0059  33.6389 0001854 274.0423  86.0217 15.27586004 31367","mean_motion":15.27586004,"eccentricity":0.0001854,"inclination_deg":43.0059,"raan_deg":33.6389,"arg_perigee_deg":274.0423,"mean_anomaly_deg":86.0217,"bstar":0.00016221,"rev_number":3136,"period_min":94.266378209105,"perigee_km":481.75905739354,"apogee_km":484.30317853168,"semimajor_km":6861.1681179626,"source":"CELESTRAK","updated_at":"2026-09-20T09:00:43.736623Z"}}}